Regional Weather Roundup
Issued by NWS

Home | Current Version | Previous Version | Graphics & Text | Print | Product List | Glossary Off
Versions: 1 2 3 4 5 6 7 8 9 10 11 12 13 14 15 16 17 18 19 20 21 22 23 24 25 26 27 28 29 30 31 32 33 34 35 36 37 38 39 40 41 42 43 44 45 46 47 48 49 50

000
ASUS43 KDTX 261910
RWRMI
MICHIGAN HOURLY REGIONAL WEATHER ROUNDUP
NATIONAL WEATHER SERVICE DETROIT/PONTIAC MI
300 PM EDT THU MAR 26 2015

NOTE: "FAIR" INDICATES FEW OR NO CLOUDS BELOW 12,000 FEET WITH NO
SIGNIFICANT WEATHER AND/OR OBSTRUCTION TO VISIBILITY.

MIZ047>049-052>055-059>063-066>070-074>076-081>083-262000-
SOUTHEAST LOWER MICHIGAN

CITY           SKY/WX    TMP DP  RH WIND       PRES   REMARKS
ADRIAN         CLOUDY    41  27  57 NW12G20   29.86S
ALMA           CLOUDY    39  24  54 W13       29.86S WCI  32
ANN ARBOR      CLOUDY    43  26  51 NW14      29.84F
BAD AXE        CLOUDY    39  24  55 NW12G20   29.82S WCI  32
CARO           CLOUDY    39  27  63 W12       29.82F WCI  31
DETROIT CITY   CLOUDY    44  27  51 W7        29.83F
DETROIT        CLOUDY    43  28  55 W10       29.84F
FLINT          CLOUDY    43  26  51 W15       29.84F
GROSSE ILE     CLOUDY    43  30  61 W9        29.83R
HILLSDALE      CLOUDY    44  26  51 NW14      29.84F
HOWELL         CLOUDY    40  27  59 W12       29.84S WCI  33

CITY           SKY/WX    TMP DP  RH WIND       PRES   REMARKS
JACKSON        CLOUDY    41  24  51 W12G22    29.85S
LAMBERTVILLE   CLOUDY    43  32  65 NW6       29.86S
LANSING        CLOUDY    39  24  55 W17G23    29.86F WCI  30
LAPEER         CLOUDY    40  26  57 NW9G16    29.82F WCI  34
MASON          CLOUDY    40  23  50 W15       29.85S WCI  32
MONROE         CLOUDY    43  30  61 NW8       29.83F
MT. CLEMENS    CLOUDY    42  28  56 NW9       29.80F
PONTIAC        CLOUDY    41  25  53 NW17      29.81F
PORT HOPE        N/A     39  25  57 W9G16     29.79F WCI  33
PORT HURON     CLOUDY    41  28  60 W8        29.82F
TRI CITIES     CLOUDY    40  25  55 W14       29.84F WCI  32
TROY           CLOUDY    43  27  53 W14       29.85S
SAGINAW HB     CLOUDY    39  27  60 W15       29.83F WCI  31
$$
MIZ043>046-050>051-056>058-064>065-071>073-077>080-262000-
SOUTHWEST LOWER MICHIGAN

CITY           SKY/WX    TMP DP  RH WIND       PRES   REMARKS
BATTLE CREEK   CLOUDY    41  24  51 NW14      29.88S
BENTON HARBOR  CLOUDY    38  25  59 VRB6      29.94F WCI  33
BIG RAPIDS     CLOUDY    35  24  63 NW12      29.85F WCI  27
COLDWATER      CLOUDY    42  24  49 W13       29.86F
FREMONT        CLOUDY    36  23  60 NW13      29.89S WCI  27
HOLLAND        CLOUDY    38  26  62 NW15G22   29.93S WCI  29
GRAND RAPIDS   CLOUDY    39  23  52 W15G23    29.88F WCI  31
IONIA          CLOUDY    40  23  51 NW13G20   29.86F WCI  32
KALAMAZOO      CLOUDY    40  23  50 NW17G25   29.89F WCI  31
LUDINGTON      CLOUDY    36  28  73 N13G18    29.92F WCI  27
MARSHALL       CLOUDY    40  24  52 NW15      29.86S WCI  32
MOUNT PLEASANT CLOUDY    38  24  58 W12G17    29.84F WCI  30
MUSKEGON       CLOUDY    38  26  62 NW14G23   29.92S WCI  30
SOUTH HAVEN    CLOUDY    38  27  64 NW10G21   29.94S WCI  31
$$
MIZ016>042-262000-
NORTHERN LOWER MICHIGAN

CITY           SKY/WX    TMP DP  RH WIND       PRES   REMARKS
ALPENA         CLOUDY    39  24  55 W13G21    29.79S WCI  31
BEAVER ISLAND  MOSUNNY   29  21  71 NW16G28   29.89R WCI  17
BELLAIRE       FLURRIES  28  23  80 W9G18     29.90R WCI  19
CADILLAC       CLOUDY    33  24  71 NW17      29.83F WCI  22
CHARLEVOIX     FLURRIES  28  23  81 NW17G23   29.91S WCI  15
FRANKFORT      CLOUDY    32  20  61 N10G20    29.93S WCI  24
GAYLORD        CLOUDY    29  25  85 NW9G21    29.80S WCI  20
GRAYLING       CLOUDY    33  26  75 W16G22    29.83S WCI  22
HARBOR SPRINGS FLURRIES  30  24  79 NW8G20    29.84S WCI  22
HOUGHTON LAKE  CLOUDY    34  25  69 NW16G22   29.82F WCI  24
MANISTEE       CLOUDY    30  23  74 N15       29.93R WCI  19
OSCODA         CLOUDY    40  26  55 W13       29.78F WCI  33
PELLSTON       CLOUDY    29  23  78 NW21G31   29.84S WCI  16
ROGERS CITY    CLOUDY    39  31  74 W10G17    29.79F WCI  32
TRAVERSE CITY  FLURRIES  30  23  75 NW15      29.89S WCI  19
$$
MIZ007>008-015-262000-
EASTERN UPPER MICHIGAN

CITY           SKY/WX    TMP DP  RH WIND       PRES   REMARKS
KINROSS        CLOUDY    32  28  86 NW20      29.79S WCI  20
MACKINAC ISLAN CLOUDY    32  28  83 NW14G22   29.81R WCI  22
NEWBERRY       CLOUDY    23  17  79 NW15G23   29.87S WCI  10
S. S. MARIE    MIX PCPN  30  25  81 NW10      29.81R WCI  21
MUNISING         N/A     21  12  68 N20G28    29.98S WCI   6
$$
MIZ004>006-011>014-085-262000-
CENTRAL UPPER MICHIGAN

CITY           SKY/WX    TMP DP  RH WIND       PRES   REMARKS
MANISTIQUE     CLOUDY    24  16  70 NW21G35   29.91S WCI  10
ESCANABA       CLOUDY    28  12  50 N12G22    29.95S WCI  18
MENOMINEE      CLOUDY    30  16  55 N13G23    29.95S WCI  20
SAWYER-GWINN   LGT SNOW  19  14  79 N16G22    29.95R WCI   5
$$
MIZ001>003-009>011-084-262000-
WESTERN UPPER MICHIGAN

CITY           SKY/WX    TMP DP  RH WIND       PRES   REMARKS
IRON MOUNTAIN  CLOUDY    25  12  58 NW17G28   29.95S WCI  12
HOUGHTON       LGT SNOW  18  10  71 N13G26    30.04S WCI   5
COPPER HARBOR    N/A     19  11  70 N21       30.05R WCI   3
IRONWOOD       CLOUDY    19  14  79 NW12      30.05S WCI   7
$$

ABBREVIATIONS USED IN REMARKS
   TC - TEMPERATURE IN CELSIUS
  WCI - WIND CHILL INDEX
   HX - HEAT INDEX
  VSB - VISIBILITY




USA.gov is the U.S. government's official web portal to all federal, state and local government web resources and services.